[[{"header":{"parameterUnit":"m.s-1","parameterCategory":1,"la1":30.2992,"la2":30.254,"lo1":-89.0895,"lo2":-89.0443,"dy":0.0025,"dx":0.0025,"nx":19,"ny":19,"refTime":"2026-04-26T09:00:00:Z","depth":0,"parameterNumber":2,"parameterNumberName":"U-component_of_WINDS"},"data":[0,0,0,-1.2777,-1.2778,-1.2839,-1.2839,-1.2913,-1.2914,0,0,0,0,0,0,0,0,0,0,0,-1.2756,-1.2756,-1.2777,-1.2778,-1.2839,-1.2839,-1.2913,-1.2914,0,0,0,0,0,0,0,0,0,0,0,-1.2756,-1.2756,-1.2757,-1.2779,-1.2839,-1.2839,-1.2913,-1.2869,0,0,0,0,0,0,0,0,0,0,-1.2811,-1.2787,-1.2756,-1.2757,-1.2779,-1.2839,-1.2839,-1.2867,-1.2872,-1.2884,0,-1.2893,0,-1.2905,-1.2919,-1.2919,0,0,0,-1.2781,-1.2783,-1.2803,-1.2757,-1.2779,-1.2839,-1.2812,-1.287,-1.2875,-1.289,-1.2894,-1.2897,-1.2906,-1.2919,-1.2919,-1.2979,-1.2979,0,0,-1.2778,-1.2765,-1.2799,-1.2806,-1.2795,-1.2811,-1.2814,-1.2873,-1.2877,-1.2895,-1.2899,-1.2907,-1.292,-1.292,-1.2979,-1.2979,0,0,0,-1.2766,-1.2763,-1.2781,-1.2803,-1.2814,-1.2812,-1.2817,-1.2874,-1.2881,-1.29,-1.2908,-1.292,-1.2921,-1.2979,-1.2979,-1.2973,0,0,0,-1.2764,-1.2756,-1.2779,-1.2772,-1.2813,-1.2845,-1.2816,-1.2877,-1.2884,-1.2908,-1.292,-1.2921,-1.2979,-1.2979,-1.2973,-1.2973,0,0,0,-1.2753,-1.2755,-1.2762,-1.2771,-1.2797,-1.2844,-1.2854,-1.2879,-1.2889,-1.2919,-1.2922,-1.2979,-1.2979,-1.2973,-1.2973,-1.2985,0,0,0,-1.2737,-1.2757,-1.2762,-1.2787,-1.2796,-1.284,-1.2854,-1.2888,-1.2913,-1.292,-1.2979,-1.2979,-1.2973,-1.2973,-1.2984,-1.2992,-1.2994,0,0,-1.2755,-1.2759,-1.2775,-1.2781,-1.282,-1.2832,-1.2871,-1.2906,-1.2922,-1.2959,-1.2961,-1.2973,-1.2973,-1.2985,-1.3011,-1.3012,0,0,0,-1.2776,-1.2787,-1.28,-1.2823,-1.285,-1.2874,-1.2905,-1.2918,-1.2951,-1.2938,-1.2982,-1.2982,-1.2989,-1.2993,-1.2995,-1.3002,-1.2981,-1.2981,-1.298,-1.2783,-1.28,-1.2828,-1.2853,-1.2875,-1.2906,-1.2926,-1.295,-1.2962,-1.2972,-1.2983,-1.2997,-1.3001,-1.3002,-1.3009,-1.2989,-1.2989,-1.2989,-1.2989,-1.281,-1.2829,-1.2843,-1.2875,-1.2894,-1.2922,-1.2954,-1.2961,-1.299,-1.299,-1.2997,-1.2995,-1.3003,-1.3011,-1.2989,-1.2989,-1.2989,-1.2989,-1.2989,-1.2816,-1.2828,-1.2843,-1.2878,-1.2904,-1.2929,-1.2956,-1.2973,-1.2989,-1.2996,-1.301,-1.301,-1.3012,-1.3001,-1.3002,-1.3002,-1.3002,-1.3002,-1.3002,-1.2816,-1.2833,-1.2853,-1.2884,-1.2901,-1.2926,-1.2958,-1.2976,-1.3,-1.301,-1.301,-1.3021,-1.3001,-1.2995,-1.3002,-1.3002,-1.3002,-1.3002,-1.3002,-1.2836,-1.2834,-1.2865,-1.2882,-1.292,-1.2944,-1.2965,-1.2999,-1.3017,-1.3029,-1.3039,-1.3021,-1.3026,-1.3026,-1.3021,-1.3035,-1.3035,-1.3035,-1.3035,-1.2841,-1.2845,-1.288,-1.2906,-1.2934,-1.2956,-1.2992,-1.3017,-1.3044,-1.3056,-1.3056,-1.3052,-1.305,-1.3057,-1.3055,-1.3051,-1.3072,-1.3072,-1.3072,-1.2855,-1.2862,-1.2888,-1.2913,-1.2944,-1.297,-1.3004,-1.3034,-1.3064,-1.3074,-1.3066,-1.3064,-1.3057,-1.3054,-1.3063,-1.306,-1.3053,0,0]},{"header":{"parameterUnit":"m.s-1","parameterCategory":1,"la1":30.2992,"la2":30.254,"lo1":-89.0895,"lo2":-89.0443,"dy":0.0025,"dx":0.0025,"nx":19,"ny":19,"refTime":"2026-04-26T09:00:00:Z","depth":0,"parameterNumber":3,"parameterNumberName":"V-component_of_WINDS"},"data":[0,0,0,4.4711,4.4713,4.4781,4.4781,4.4877,4.4878,0,0,0,0,0,0,0,0,0,0,0,4.4699,4.47,4.4711,4.4713,4.4781,4.4781,4.4877,4.4878,0,0,0,0,0,0,0,0,0,0,0,4.4698,4.47,4.4701,4.4713,4.4781,4.4781,4.4876,4.4821,0,0,0,0,0,0,0,0,0,0,4.4754,4.475,4.4699,4.4701,4.4714,4.4781,4.4781,4.4819,4.4825,4.4851,0,4.4878,0,4.4879,4.4885,4.4885,0,0,0,4.4707,4.4745,4.4757,4.4701,4.4715,4.4781,4.4748,4.4822,4.4829,4.4859,4.4879,4.4882,4.4881,4.4886,4.4886,4.5062,4.5063,0,0,4.4703,4.4715,4.4752,4.4762,4.4754,4.4746,4.4751,4.4826,4.4847,4.4879,4.4884,4.4883,4.4886,4.4887,4.506,4.5062,0,0,0,4.4696,4.4712,4.4722,4.4758,4.477,4.4748,4.4753,4.4844,4.4846,4.4885,4.4884,4.4887,4.4888,4.5059,4.5061,4.5129,0,0,0,4.4694,4.4708,4.472,4.4728,4.4769,4.4808,4.477,4.4841,4.4849,4.4883,4.4887,4.4889,4.5058,4.506,4.5124,4.5158,0,0,0,4.4692,4.4708,4.4721,4.4729,4.4758,4.4807,4.4813,4.4843,4.4849,4.4885,4.489,4.5057,4.506,4.512,4.5152,4.5208,0,0,0,4.4692,4.4778,4.4722,4.4818,4.4758,4.4849,4.4813,4.4879,4.4918,4.4887,4.5058,4.5061,4.5119,4.5148,4.5204,4.5259,4.5283,0,0,4.4807,4.4793,4.4848,4.48,4.4904,4.4838,4.4951,4.4975,4.4966,4.503,4.5034,4.5126,4.5151,4.5208,4.5412,4.5431,0,0,0,4.4889,4.4929,4.4954,4.4993,4.5015,4.5036,4.5042,4.505,4.5104,4.5002,4.5161,4.5176,4.5208,4.5234,4.525,4.5277,4.5073,4.5073,4.5072,4.5068,4.5055,4.5146,4.5141,4.5179,4.5185,4.5214,4.5226,4.52,4.5238,4.5257,4.5382,4.5413,4.5425,4.5453,4.5284,4.5284,4.5284,4.5285,4.5236,4.5291,4.5255,4.5331,4.5316,4.5378,4.5387,4.5366,4.5421,4.5367,4.5395,4.5337,4.5446,4.547,4.529,4.5289,4.5288,4.5288,4.5287,4.5352,4.5376,4.5387,4.5443,4.5487,4.5478,4.5533,4.5517,4.5501,4.5529,4.5547,4.5546,4.5542,4.5539,4.5539,4.5539,4.554,4.554,4.554,4.5468,4.5479,4.5528,4.556,4.5583,4.5612,4.5618,4.564,4.566,4.5643,4.5643,4.5613,4.546,4.5422,4.5547,4.5546,4.5545,4.5544,4.5544,4.5644,4.5602,4.5679,4.5703,4.5738,4.5784,4.5762,4.5808,4.5823,4.5851,4.5815,4.5705,4.5688,4.5675,4.5643,4.5818,4.5818,4.5818,4.5818,4.5743,4.5733,4.5808,4.5848,4.5884,4.5872,4.5958,4.5964,4.5963,4.5972,4.5944,4.5901,4.5888,4.5878,4.5861,4.5831,4.605,4.6051,4.6051,4.585,4.5843,4.5921,4.5922,4.5948,4.5971,4.6051,4.6096,4.6086,4.606,4.5978,4.5968,4.5898,4.5876,4.5848,4.5821,4.5766,0,0]}]]